{"data":{"norad_id":67735,"intl_designator":"2026-026Q","name":"STARLINK-36691","alt_names":[],"object_type":"PAYLOAD","status":"ACTIVE","operator":null,"country":"US","launch_date":"2026-02-11","launch_site_code":"AFWTR","launch_vehicle":null,"mission":null,"orbit_class":"UNKNOWN","rcs_meters":null,"size_class":null,"mass_kg":null,"dimensions":null,"purposes":["comms"],"wikipedia_slug":null,"has_3d_model":false,"image_url":null,"decayed_at":null,"tle_current":{"epoch":"2026-05-25T03:18:01.685664Z","epoch_age_seconds":59119,"freshness":"FRESH","line1":"1 67735U 26026Q   26145.13751951  .00017136  00000+0  53176-3 0  9996","line2":"2 67735  97.2864 198.6938 0000363 117.2379 242.8901 15.33453749 15840","mean_motion":15.33453749,"eccentricity":3.63e-5,"inclination_deg":97.2864,"raan_deg":198.6938,"arg_perigee_deg":117.2379,"mean_anomaly_deg":242.8901,"bstar":0.00053176,"rev_number":1584,"period_min":93.905668882355,"perigee_km":465.26871908792,"apogee_km":465.76556837876,"semimajor_km":6843.6541437333,"source":"CELESTRAK","updated_at":"2026-05-25T13:38:21.689442Z"}}}